1505919600.71,11573,15.75,73424.5,2.33,-1.21,-1.33,0,*7D
1505919601.92,11574,15.75,73426.0,2.33,-1.21,-1.25,0,*7D
1505919603.13,11575,15.69,73422.3,2.35,-0.93,-1.17,0,*43
1505919604.36,11576,15.69,73420.8,2.33,-0.97,-1.25,0,*43
1505919605.59,11577,15.69,73420.3,2.35,-0.85,-0.97,0,*7F
1505919606.8,11578,15.75,73424.0,2.35,-0.85,-1.17,0,*49
1505919608.0,11579,15.69,73422.3,2.35,-0.93,-1.17,0,*4F
1505919609.2,11580,15.75,73424.0,2.35,-1.17,-1.33,0,*72
1505919610.42,11581,15.69,73424.5,2.35,-1.21,-1.43,0,*71
1505919611.61,11582,15.69,73422.8,2.35,-1.33,-1.55,0,*76
1505919612.83,11583,15.75,73426.0,2.35,-1.39,-1.51,0,*79
1505919614.02,11584,15.75,73426.3,2.35,-1.21,-1.33,0,*73
1505919615.21,11585,15.69,73424.5,2.35,-1.17,-1.33,0,*77
1505919616.45,11586,15.69,73424.3,2.33,-1.43,-1.63,0,*76
1505919617.7,11587,15.69,73426.3,2.33,-1.33,-1.43,0,*72
1505919618.94,11588,15.75,73426.8,2.33,-1.21,-1.43,0,*7E
1505919620.13,11589,15.75,73426.0,2.35,-1.21,-1.33,0,*7E
1505919621.32,11590,15.75,73426.8,2.35,-1.55,-1.79,0,*7B
1505919622.53,11591,15.75,73426.5,2.33,-1.59,-1.75,0,*7C
1505919623.77,11592,15.75,73424.0,2.33,-1.55,-1.83,0,*7A
1505919624.99,11593,15.69,73424.0,2.29,-1.55,-1.75,0,*79
1505919626.23,11594,15.69,73426.3,2.33,-1.47,-1.59,0,*78
1505919627.44,11595,15.75,73426.8,2.29,-1.55,-1.71,0,*7B
1505919628.68,11596,15.75,73428.0,2.29,-1.59,-1.83,0,*79
1505919629.89,11597,15.75,73426.3,2.29,-1.55,-1.75,0,*7D
1505919631.1,11598,15.75,73426.8,2.29,-1.33,-1.59,0,*7C
1505919632.33,11599,15.75,73428.5,2.29,-1.55,-1.95,0,*7D
1505919633.55,11600,15.69,73426.3,2.27,-1.67,-1.91,0,*75
1505919634.76,11601,15.69,73424.0,2.27,-1.67,-2.11,0,*7F
1505919636.0,11602,15.69,73426.3,2.29,-1.47,-1.75,0,*71
1505919637.23,11603,15.69,73420.5,2.27,-1.39,-1.67,0,*74
1505919638.49,11604,15.75,73426.8,2.29,-1.35,-1.83,0,*7B
1505919639.71,11605,15.75,73424.5,2.27,-1.63,-2.03,0,*7C
1505919640.93,11606,15.75,73426.8,2.27,-1.43,-1.75,0,*7F
1505919642.12,11607,15.69,73424.5,2.27,-1.75,-2.15,0,*7E
1505919643.36,11608,15.75,73428.3,2.25,-1.63,-2.11,0,*70
1505919644.58,11609,15.69,73426.0,2.25,-1.67,-2.15,0,*71
1505919645.8,11610,15.69,73424.0,2.25,-1.67,-2.23,0,*7C
1505919647.01,11611,15.75,73426.8,2.25,-1.63,-2.15,0,*7C
1505919648.25,11612,15.69,73424.8,2.25,-1.51,-2.03,0,*79
1505919649.49,11613,15.69,73426.8,2.25,-1.51,-2.03,0,*78
1505919650.7,11614,15.69,73426.5,2.25,-1.51,-2.15,0,*78
1505919651.88,11615,15.69,73424.0,2.23,-1.51,-2.15,0,*7F
1505919653.1,11616,15.69,73420.8,2.25,-1.29,-1.79,0,*7C
1505919654.35,11617,15.69,73426.5,2.25,-1.01,-1.63,0,*7C
1505919655.6,11618,15.75,73426.5,2.25,-1.05,-1.63,0,*77
1505919656.86,11619,15.75,73426.3,2.25,-1.35,-2.03,0,*70
1505919658.08,11620,15.69,73424.0,2.25,-1.51,-2.15,0,*7F
1505919659.32,11621,15.69,73422.5,2.25,-1.47,-2.15,0,*79
1505919660.56,11622,15.69,73426.5,2.25,-1.47,-2.15,0,*7A
1505919661.76,11623,15.69,73424.3,2.23,-1.63,-2.31,0,*7D
1505919662.97,11624,15.75,73424.8,2.25,-1.67,-2.35,0,*7C
1505919664.18,11625,15.69,73424.0,2.25,-1.67,-2.43,0,*7C
1505919665.42,11626,15.69,73426.5,2.23,-1.83,-2.59,0,*78
1505919666.67,11627,15.69,73428.8,2.23,-1.91,-2.67,0,*77
1505919667.94,11628,15.69,73426.8,2.25,-1.99,-2.75,0,*75
1505919669.15,11629,15.75,73426.8,2.23,-1.79,-2.59,0,*72
1505919670.4,11630,15.69,73426.5,2.23,-1.87,-2.67,0,*76
1505919671.61,11631,15.75,73428.3,2.23,-1.79,-2.59,0,*7B
1505919672.83,11632,15.75,73428.3,2.23,-1.71,-2.59,0,*70
1505919674.04,11633,15.69,73426.8,2.23,-1.67,-2.67,0,*7B
1505919675.26,11634,15.69,73426.5,2.23,-1.63,-2.67,0,*78
1505919676.53,11635,15.69,73424.8,2.25,-1.39,-2.55,0,*71
1505919677.74,11636,15.69,73424.8,2.23,-1.51,-2.67,0,*7B
1505919678.99,11637,15.75,73428.3,2.23,-1.43,-2.71,0,*7E
1505919680.24,11638,15.69,73426.5,2.23,-1.39,-2.71,0,*7C
1505919681.45,11639,15.69,73426.8,2.25,-1.51,-2.87,0,*7C
1505919682.63,11640,15.69,73426.8,2.23,-1.55,-3.03,0,*7D
1505919683.85,11641,15.69,73426.5,2.25,-1.75,-3.11,0,*7B
1505919685.06,11642,15.69,73428.8,2.25,-1.67,-3.11,0,*7B
1505919686.27,11643,15.69,73424.8,2.25,-1.67,-3.15,0,*7E
1505919687.48,11644,15.69,73424.8,2.25,-1.63,-3.11,0,*79
1505919688.7,11645,15.69,73424.5,2.25,-1.63,-3.03,0,*7B
1505919689.91,11646,15.75,73430.0,2.25,-1.63,-3.11,0,*7B
1505919691.09,11647,15.69,73424.5,2.23,-1.59,-3.11,0,*75
1505919692.27,11648,15.69,73430.3,2.27,-1.63,-3.23,0,*76
1505919693.46,11649,15.69,73426.5,2.27,-1.75,-3.31,0,*73
1505919694.65,11650,15.69,73428.3,2.27,-1.79,-3.39,0,*7F
1505919695.84,11651,15.75,73430.5,2.27,-1.79,-3.39,0,*7E
1505919697.08,11652,15.69,73424.3,2.27,-1.87,-3.51,0,*72
1505919698.31,11653,15.69,73428.5,2.27,-1.87,-3.55,0,*77
1505919699.55,11654,15.69,73428.8,2.27,-1.87,-3.55,0,*70
1505919700.76,11655,15.69,73430.8,2.27,-1.79,-3.43,0,*77
1505919702.01,11656,15.69,73430.8,2.29,-1.95,-3.59,0,*73
1505919703.28,11657,15.75,73430.0,2.29,-1.87,-3.59,0,*71
1505919704.54,11658,15.69,73430.0,2.29,-1.99,-3.63,0,*78
1505919705.72,11659,15.69,73426.8,2.27,-2.27,-4.17,0,*75
1505919706.93,11660,15.75,73430.8,2.29,-2.39,-4.25,0,*7F
1505919708.12,11661,15.75,73432.0,2.27,-2.35,-4.29,0,*70
1505919709.31,11662,15.69,73430.0,2.27,-2.27,-4.17,0,*7D
1505919710.5,11663,15.69,73430.3,2.27,-2.39,-4.41,0,*70
1505919711.68,11664,15.75,73430.0,2.27,-2.43,-4.45,0,*7E
1505919712.87,11665,15.69,73428.5,2.27,-2.43,-4.45,0,*7F
1505919714.05,11666,15.75,73430.0,2.27,-2.43,-4.45,0,*7C
1505919715.24,11667,15.69,73428.5,2.27,-2.39,-4.41,0,*74
1505919716.43,11668,15.69,73430.5,2.27,-2.27,-4.33,0,*71
1505919717.62,11669,15.75,73430.8,2.27,-2.43,-4.45,0,*73
1505919718.86,11670,15.75,73432.0,2.29,-2.63,-4.61,0,*71
1505919720.09,11671,15.75,73434.0,2.27,-2.63,-4.65,0,*7A
1505919721.33,11672,15.75,73432.8,2.25,-2.75,-4.65,0,*7C
1505919722.52,11673,15.69,73428.0,2.23,-2.83,-4.61,0,*76
1505919723.71,11674,15.69,73432.5,2.23,-2.79,-4.61,0,*74
1505919724.9,11675,15.69,73432.0,2.23,-2.79,-4.57,0,*70
1505919726.09,11676,15.69,73432.0,2.23,-2.83,-4.49,0,*79
1505919727.31,11677,15.75,73434.5,2.23,-2.55,-4.21,0,*7D
1505919728.52,11678,15.69,73434.3,2.25,-2.43,-4.09,0,*79
1505919729.76,11679,15.75,73434.5,2.25,-2.55,-4.17,0,*70
1505919731.0,11680,15.75,73434.5,2.25,-2.63,-4.09,0,*7C
1505919732.21,11681,15.69,73428.0,2.23,-2.67,-3.95,0,*7D
1505919733.43,11682,15.69,73430.5,2.23,-2.55,-3.79,0,*7D
1505919734.69,11683,15.69,73432.3,2.25,-2.51,-3.63,0,*75
1505919735.93,11684,15.69,73430.5,2.25,-2.67,-3.79,0,*7C
1505919737.15,11685,15.69,73434.0,2.23,-2.59,-3.67,0,*79
1505919738.41,11686,15.69,73432.3,2.21,-2.55,-3.67,0,*74
1505919739.65,11687,15.69,73432.0,2.21,-2.43,-3.43,0,*74
1505919740.86,11688,15.69,73434.3,2.23,-2.07,-2.91,0,*77
1505919742.11,11689,15.69,73428.3,2.23,-1.83,-2.67,0,*70
1505919743.35,11690,15.69,73430.5,2.23,-1.83,-2.71,0,*7F
1505919744.59,11691,15.69,73430.0,2.25,-1.87,-2.43,0,*7D
1505919745.86,11692,15.69,73430.0,2.25,-1.87,-2.55,0,*79
1505919747.14,11693,15.69,73434.3,2.25,-1.99,-2.67,0,*76
1505919748.4,11694,15.69,73432.8,2.25,-1.91,-2.55,0,*78
1505919749.62,11695,15.75,73438.0,2.25,-1.75,-2.43,0,*74
1505919750.86,11696,15.75,73436.3,2.25,-1.87,-2.43,0,*7A
1505919752.13,11697,15.69,73430.8,2.25,-2.03,-2.67,0,*72
1505919753.37,11698,15.69,73428.8,2.23,-2.07,-2.71,0,*78
1505919754.61,11699,15.69,73434.5,2.25,-1.87,-2.43,0,*75
1505919755.83,11700,15.69,73434.0,2.25,-1.67,-2.23,0,*7C
1505919757.04,11701,15.75,73436.5,2.25,-1.75,-2.27,0,*7A
1505919758.24,11702,15.75,73434.8,2.27,-1.67,-2.23,0,*7C
1505919759.43,11703,15.69,73432.8,2.27,-1.63,-2.23,0,*79
1505919760.62,11704,15.69,73434.8,2.27,-1.63,-2.15,0,*7B
1505919761.81,11705,15.69,73434.5,2.27,-1.59,-2.15,0,*73
1505919763.0,11706,15.69,73436.5,2.27,-1.59,-2.15,0,*70
1505919764.23,11707,15.69,73432.8,2.29,-1.55,-2.11,0,*77
1505919765.5,11708,15.69,73434.3,2.29,-1.47,-2.11,0,*7B
1505919766.71,11709,15.69,73434.8,2.29,-1.55,-2.23,0,*78
1505919767.9,11710,15.75,73436.5,2.27,-1.63,-2.27,0,*7F
1505919769.11,11711,15.75,73438.3,2.29,-1.59,-2.23,0,*7D
1505919770.32,11712,15.75,73438.3,2.29,-1.63,-2.23,0,*77
1505919771.53,11713,15.75,73438.5,2.29,-1.63,-2.19,0,*7F
1505919772.72,11714,15.75,73436.5,2.27,-1.75,-2.27,0,*7C
1505919773.93,11715,15.69,73436.8,2.29,-1.75,-2.23,0,*77
1505919775.14,11716,15.69,73436.0,2.29,-1.75,-2.19,0,*7D
1505919776.38,11717,15.69,73436.0,2.29,-1.63,-2.11,0,*73
1505919777.6,11718,15.69,73436.5,2.27,-1.75,-2.11,0,*75
1505919778.84,11719,15.69,73432.8,2.29,-1.83,-2.19,0,*7B
1505919780.07,11720,15.69,73430.5,2.29,-1.95,-2.19,0,*76
1505919781.31,11721,15.69,73434.5,2.29,-1.87,-2.19,0,*74
1505919782.58,11722,15.69,73436.8,2.29,-1.83,-2.11,0,*7B
1505919783.85,11723,15.69,73436.0,2.29,-1.83,-2.07,0,*7D
1505919785.11,11724,15.69,73434.8,2.29,-1.95,-2.11,0,*7A
1505919786.38,11725,15.69,73436.0,2.29,-1.83,-2.07,0,*7B
1505919787.64,11726,15.69,73436.3,2.29,-1.83,-2.07,0,*78
1505919788.87,11727,15.69,73436.8,2.29,-1.75,-1.95,0,*78
1505919790.15,11728,15.69,73438.5,2.33,-1.83,-1.99,0,*79
1505919791.39,11729,15.69,73438.3,2.33,-1.71,-1.95,0,*79
1505919792.63,11730,15.69,73436.8,2.29,-1.71,-1.83,0,*7D
1505919793.87,11731,15.69,73438.5,2.29,-1.71,-1.83,0,*7C
1505919795.08,11732,15.69,73438.0,2.35,-1.59,-1.83,0,*78
1505919796.32,11733,15.69,73436.0,2.33,-1.59,-1.83,0,*7F
1505919797.54,11734,15.69,73438.3,2.33,-1.55,-1.71,0,*79
1505919798.79,11735,15.69,73438.5,2.33,-1.71,-1.87,0,*77
1505919800.0,11736,15.69,73434.8,2.33,-1.59,-1.75,0,*73
1505919801.21,11737,15.69,73438.0,2.33,-1.55,-1.75,0,*7E
1505919802.45,11738,15.69,73434.5,2.33,-1.59,-1.83,0,*74
1505919803.72,11739,15.69,73436.8,2.33,-1.83,-2.07,0,*7D
1505919804.99,11740,15.69,73436.3,2.33,-1.87,-2.07,0,*77
1505919806.26,11741,15.69,73438.5,2.33,-1.83,-2.11,0,*75
1505919807.48,11742,15.69,73438.3,2.33,-2.31,-2.39,0,*76
1505919808.69,11743,15.69,73436.8,2.33,-2.23,-2.35,0,*78
1505919809.94,11744,15.69,73438.8,2.33,-1.99,-2.19,0,*73
1505919811.18,11745,15.69,73438.5,2.33,-1.75,-1.99,0,*7B
1505919812.43,11746,15.69,73438.5,2.33,-1.71,-1.83,0,*77
1505919813.67,11747,15.69,73440.0,2.33,-1.75,-1.87,0,*76
1505919814.93,11748,15.69,73438.8,2.33,-1.87,-1.95,0,*77
1505919816.2,11749,15.69,73436.8,2.33,-1.95,-2.07,0,*7D
1505919817.47,11750,15.69,73436.5,2.33,-1.87,-2.07,0,*76
1505919818.71,11751,15.69,73438.5,2.33,-1.75,-1.83,0,*75
1505919819.97,11752,15.69,73438.3,2.33,-1.87,-1.95,0,*7C
1505919821.24,11753,15.69,73440.0,2.33,-1.87,-2.07,0,*75
1505919822.5,11754,15.69,73436.8,2.33,-1.83,-1.95,0,*7E
1505919823.77,11755,15.69,73436.8,2.33,-1.87,-2.07,0,*73
1505919825.04,11756,15.69,73438.8,2.33,-1.87,-1.95,0,*78
1505919826.28,11757,15.69,73438.0,2.33,-1.63,-1.83,0,*74
1505919827.52,11758,15.75,73442.8,2.33,-1.71,-1.83,0,*78
1505919828.79,11759,15.69,73438.3,2.33,-1.95,-2.11,0,*7B
1505919830.05,11760,15.69,73442.3,2.33,-1.95,-2.11,0,*71
1505919831.31,11761,15.69,73440.5,2.29,-1.95,-2.11,0,*7B
1505919832.58,11762,15.69,73438.5,2.29,-1.95,-2.07,0,*7F
1505919833.81,11763,15.69,73436.8,2.29,-1.75,-1.95,0,*78
1505919835.02,11764,15.69,73440.3,2.29,-1.59,-1.71,0,*7B
1505919836.26,11765,15.69,73440.5,2.29,-1.43,-1.63,0,*72
1505919837.47,11766,15.69,73438.8,2.29,-1.55,-1.75,0,*71
1505919838.71,11767,15.69,73436.5,2.33,-1.63,-1.87,0,*73
1505919839.95,11768,15.75,73440.5,2.29,-1.63,-1.83,0,*73
1505919841.15,11769,15.75,73442.0,2.29,-1.59,-1.75,0,*72
1505919842.38,11770,15.69,73436.0,2.29,-1.63,-1.95,0,*7D
1505919843.62,11771,15.69,73438.0,2.29,-1.71,-1.95,0,*7F
1505919844.87,11772,15.69,73440.0,2.29,-1.71,-1.99,0,*70
1505919846.11,11773,15.69,73436.5,2.33,-1.75,-2.07,0,*7A
1505919847.35,11774,15.69,73440.0,2.29,-1.71,-1.87,0,*79
1505919848.59,11775,15.69,73438.0,2.33,-1.63,-1.95,0,*73
1505919849.81,11776,15.69,73436.3,2.33,-1.55,-1.71,0,*7F
1505919851.05,11777,15.69,73436.0,2.29,-1.43,-1.71,0,*72
1505919852.29,11778,15.69,73436.8,2.29,-1.43,-1.59,0,*77
1505919853.53,11779,15.69,73438.5,2.29,-1.43,-1.63,0,*7F
1505919854.76,11780,15.69,73436.0,2.29,-1.35,-1.63,0,*78
1505919856.0,11781,15.69,73440.5,2.29,-1.35,-1.59,0,*70
1505919857.24,11782,15.69,73436.8,2.33,-1.35,-1.59,0,*78
1505919858.45,11783,15.69,73434.0,2.33,-1.33,-1.55,0,*73
1505919859.7,11784,15.69,73438.0,2.33,-1.25,-1.35,0,*75
1505919860.94,11785,15.69,73438.8,2.33,-1.33,-1.47,0,*76
1505919862.19,11786,15.69,73438.0,2.33,-1.25,-1.47,0,*72
1505919863.43,11787,15.69,73438.0,2.33,-1.35,-1.63,0,*74
1505919864.61,11788,15.69,73438.5,2.35,-1.51,-1.79,0,*74
1505919865.83,11789,15.69,73436.0,2.35,-1.71,-2.07,0,*7D
1505919867.08,11790,15.69,73436.5,2.33,-1.71,-2.07,0,*73
1505919868.32,11791,15.69,73436.5,2.29,-1.59,-1.83,0,*7C
1505919869.55,11792,15.69,73438.3,2.29,-1.35,-1.63,0,*7B
1505919870.8,11793,15.69,73438.5,2.29,-1.43,-1.71,0,*78
1505919872.04,11794,15.69,73438.0,2.29,-1.55,-1.87,0,*71
1505919873.27,11795,15.69,73436.3,2.29,-1.59,-1.99,0,*73
1505919874.52,11796,15.69,73438.8,2.29,-1.71,-2.07,0,*7E
1505919875.76,11797,15.69,73438.5,2.29,-1.55,-1.83,0,*76
1505919876.99,11798,15.69,73438.5,2.29,-1.63,-1.95,0,*7B
1505919878.22,11799,15.69,73436.5,2.29,-1.83,-2.19,0,*73
1505919879.44,11800,15.69,73440.0,2.27,-1.67,-2.11,0,*70
1505919880.66,11801,15.69,73438.3,2.27,-1.63,-2.03,0,*76
1505919881.9,11802,15.69,73438.0,2.29,-1.59,-1.99,0,*72
1505919883.13,11803,15.69,73436.8,2.29,-1.55,-1.87,0,*70
1505919884.34,11804,15.69,73436.8,2.27,-1.59,-1.91,0,*72
1505919885.56,11805,15.69,73436.5,2.27,-1.63,-2.07,0,*76
1505919886.76,11806,15.69,73436.5,2.27,-1.75,-2.15,0,*71
1505919887.97,11807,15.69,73440.3,2.27,-1.59,-1.91,0,*71
1505919889.19,11808,15.69,73438.8,2.29,-1.33,-1.71,0,*72
1505919890.43,11809,15.69,73436.8,2.29,-1.35,-1.71,0,*75
1505919891.67,11810,15.69,73438.0,2.29,-1.35,-1.71,0,*7D
1505919892.94,11811,15.69,73436.8,2.29,-1.47,-1.87,0,*70
1505919894.2,11812,15.69,73438.8,2.29,-1.35,-1.83,0,*72
1505919895.39,11813,15.69,73434.8,2.27,-1.63,-2.19,0,*7E
1505919896.63,11814,15.69,73436.5,2.29,-1.87,-2.31,0,*77
1505919897.85,11815,15.69,73436.3,2.27,-1.91,-2.35,0,*7B
1505919899.04,11816,15.69,73438.8,2.27,-1.75,-2.23,0,*75
1505919900.26,11817,15.69,73436.5,2.29,-1.71,-2.19,0,*77
1505919901.5,11818,15.69,73434.3,2.29,-1.95,-2.35,0,*7C
1505919902.74,11819,15.69,73440.0,2.27,-2.03,-2.55,0,*79
1505919903.99,11820,15.69,73438.5,2.27,-2.03,-2.51,0,*77
1505919905.25,11821,15.69,73438.8,2.27,-1.99,-2.51,0,*76
1505919906.51,11822,15.69,73440.3,2.29,-1.95,-2.47,0,*70
1505919907.76,11823,15.69,73440.0,2.27,-1.99,-2.63,0,*75
1505919909.01,11824,15.69,73438.8,2.27,-1.91,-2.55,0,*7F
1505919910.26,11825,15.69,73440.3,2.27,-2.11,-2.75,0,*77
1505919911.51,11826,15.69,73438.3,2.27,-2.11,-2.75,0,*74
1505919912.75,11827,15.69,73438.0,2.27,-2.11,-2.75,0,*75
1505919913.98,11828,15.69,73438.5,2.27,-2.11,-2.87,0,*77
1505919915.16,11829,15.69,73436.0,2.27,-2.23,-2.91,0,*70
1505919916.35,11830,15.69,73438.5,2.27,-2.27,-2.99,0,*74
1505919917.54,11831,15.69,73436.8,2.27,-2.35,-3.03,0,*74
1505919918.75,11832,15.69,73440.3,2.25,-2.23,-2.91,0,*78
1505919919.97,11833,15.69,73436.5,2.25,-2.43,-3.11,0,*76
1505919921.2,11834,15.69,73438.8,2.25,-2.51,-3.15,0,*76
1505919922.41,11835,15.69,73436.3,2.25,-2.39,-3.23,0,*7C
1505919923.6,11836,15.69,73434.0,2.23,-2.31,-3.03,0,*73
1505919924.79,11837,15.69,73438.5,2.23,-2.27,-2.95,0,*7B
1505919925.97,11838,15.69,73436.8,2.23,-2.19,-3.03,0,*77
1505919927.19,11839,15.69,73438.0,2.25,-2.23,-2.87,0,*74
1505919928.4,11840,15.69,73440.5,2.25,-2.35,-2.99,0,*72
1505919929.62,11841,15.69,73438.3,2.23,-2.67,-3.27,0,*76
1505919930.83,11842,15.69,73438.8,2.23,-2.55,-3.07,0,*76
1505919932.04,11843,15.69,73438.3,2.23,-2.59,-3.07,0,*7B
1505919933.25,11844,15.69,73438.3,2.23,-2.55,-3.07,0,*70
1505919934.44,11845,15.69,73432.8,2.23,-2.83,-3.35,0,*7B
1505919935.66,11846,15.69,73434.3,2.25,-2.87,-3.27,0,*79
1505919936.9,11847,15.69,73436.5,2.21,-2.71,-3.27,0,*75
1505919938.13,11848,15.69,73438.3,2.21,-3.35,-3.91,0,*76
1505919939.37,11849,15.69,73436.8,2.21,-3.15,-3.67,0,*7C
1505919940.58,11850,15.69,73434.8,2.19,-3.31,-3.71,0,*7E
1505919941.81,11851,15.69,73438.3,2.21,-3.19,-3.67,0,*79
1505919943.0,11852,15.69,73438.5,2.19,-3.35,-3.95,0,*72
1505919944.22,11853,15.69,73438.8,2.19,-3.47,-3.95,0,*76
1505919945.46,11854,15.69,73440.0,2.17,-3.55,-4.05,0,*72
1505919946.65,11855,15.69,73436.3,2.15,-3.35,-3.79,0,*7B
1505919947.86,11856,15.69,73436.3,2.15,-2.99,-3.43,0,*76
1505919949.07,11857,15.69,73436.5,2.17,-2.79,-3.23,0,*7D
1505919950.26,11858,15.69,73440.3,2.15,-2.87,-3.35,0,*76
1505919951.47,11859,15.69,73438.8,2.15,-2.63,-3.03,0,*78
1505919952.69,11860,15.69,73434.5,2.15,-2.63,-3.03,0,*72
1505919953.9,11861,15.69,73436.0,2.15,-2.67,-3.15,0,*70
1505919955.14,11862,15.69,73436.5,2.13,-2.67,-3.03,0,*72
1505919956.35,11863,15.69,73434.8,2.15,-2.47,-2.87,0,*7A
1505919957.57,11864,15.69,73438.5,2.15,-2.35,-2.67,0,*76
1505919958.78,11865,15.69,73436.5,2.15,-2.27,-2.55,0,*75
1505919960.0,11866,15.69,73436.3,2.15,-2.27,-2.55,0,*76
1505919961.24,11867,15.69,73436.3,2.17,-2.35,-2.75,0,*74
1505919962.48,11868,15.69,73434.3,2.17,-2.27,-2.67,0,*7B
1505919963.67,11869,15.69,73438.5,2.15,-2.35,-2.79,0,*74
1505919964.88,11870,15.69,73438.0,2.15,-2.63,-3.15,0,*74
1505919966.12,11871,15.69,73438.5,2.17,-2.63,-3.03,0,*70
1505919967.37,11872,15.69,73438.0,2.17,-2.63,-3.03,0,*73
1505919968.61,11873,15.69,73436.8,2.17,-2.51,-2.87,0,*7E
1505919969.85,11874,15.69,73436.5,2.17,-2.75,-3.11,0,*71
1505919971.06,11875,15.69,73438.3,2.17,-2.91,-3.35,0,*7C
1505919972.24,11876,15.69,73434.3,2.19,-2.87,-3.19,0,*78
1505919973.42,11877,15.69,73434.8,2.19,-2.87,-3.23,0,*70
1505919974.64,11878,15.69,73438.5,2.17,-2.99,-3.35,0,*79
1505919975.85,11879,15.69,73432.5,2.17,-2.99,-3.23,0,*7F
1505919977.03,11880,15.69,73436.0,2.19,-2.99,-3.31,0,*74
1505919978.22,11881,15.69,73436.3,2.15,-3.11,-3.35,0,*7C
1505919979.44,11882,15.69,73436.0,2.19,-3.35,-3.51,0,*77
1505919980.68,11883,15.69,73438.0,2.17,-3.39,-3.51,0,*74
1505919981.92,11884,15.69,73438.8,2.19,-3.47,-3.59,0,*7C
1505919983.13,11885,15.69,73434.3,2.19,-3.35,-3.47,0,*77
1505919984.31,11886,15.69,73436.5,2.19,-3.23,-3.39,0,*7A
1505919985.57,11887,15.69,73438.5,2.17,-3.51,-3.55,0,*7A
1505919986.81,11888,15.69,73434.3,2.19,-3.59,-3.63,0,*76
1505919988.02,11889,15.69,73436.0,2.19,-3.71,-3.87,0,*77
1505919989.21,11890,15.69,73436.8,2.19,-3.83,-3.95,0,*71
1505919990.41,11891,15.69,73434.8,2.19,-3.87,-3.95,0,*74
1505919991.62,11892,15.69,73436.3,2.17,-4.29,-4.33,0,*71
1505919992.81,11893,15.69,73434.3,2.15,-4.45,-4.53,0,*7E
1505919994.0,11894,15.69,73436.3,2.15,-4.29,-4.41,0,*70
1505919995.22,11895,15.69,73438.0,2.17,-4.33,-4.33,0,*7D
1505919996.44,11896,15.69,73436.3,2.17,-4.21,-4.29,0,*76
1505919997.64,11897,15.69,73436.8,2.15,-4.17,-4.21,0,*78
1505919998.83,11898,15.69,73436.8,2.15,-4.53,-4.65,0,*77
1505920000.04,11899,15.69,73436.0,2.17,-4.53,-4.65,0,*74
1505920001.25,11900,15.69,73438.8,2.15,-4.53,-4.69,0,*7B
1505920002.47,11901,15.69,73438.8,2.15,-4.65,-4.89,0,*71
1505920003.69,11902,15.69,73436.8,2.15,-4.33,-4.77,0,*70
1505920004.9,11903,15.69,73436.5,2.15,-4.53,-4.93,0,*7D
1505920006.11,11904,15.69,73436.5,2.15,-4.45,-5.07,0,*71
1505920007.33,11905,15.69,73436.3,2.15,-4.41,-5.11,0,*73
1505920008.57,11906,15.69,73436.0,2.13,-4.49,-5.27,0,*7B
1505920009.78,11907,15.69,73442.5,2.13,-4.61,-5.47,0,*76
1505920011.0,11908,15.69,73442.3,2.13,-4.37,-5.47,0,*7A
1505920012.23,11909,15.69,73434.8,2.13,-4.45,-5.77,0,*7D
1505920013.47,11910,15.69,73438.8,2.13,-4.49,-5.93,0,*73
1505920014.7,11911,15.69,73438.5,2.13,-4.49,-6.19,0,*73
1505920015.92,11912,15.69,73438.3,2.11,-4.69,-6.55,0,*78
1505920017.13,11913,15.69,73438.0,2.13,-4.61,-6.69,0,*7C
1505920018.31,11914,15.69,73436.5,2.11,-4.45,-6.69,0,*7F
1505920019.53,11915,15.69,73440.0,2.11,-4.57,-6.93,0,*78
1505920020.73,11916,15.69,73442.8,2.11,-4.49,-7.05,0,*7A
1505920021.95,11917,15.69,73436.5,2.13,-4.57,-7.19,0,*7B
1505920023.17,11918,15.69,73438.5,2.11,-4.57,-7.35,0,*78
1505920024.41,11919,15.69,73438.5,2.11,-4.69,-7.73,0,*76
1505920025.62,11920,15.75,73440.5,2.11,-4.85,-7.87,0,*75
1505920026.86,11921,15.69,73438.8,2.11,-4.85,-7.91,0,*73
1505920028.07,11922,15.69,73438.5,2.11,-5.23,-8.55,0,*7A
1505920029.27,11923,15.69,73438.5,2.11,-5.35,-8.85,0,*71
1505920030.48,11924,15.69,73436.0,2.11,-5.61,-9.31,0,*79
1505920031.72,11925,15.69,73438.0,2.11,-5.85,-9.61,0,*77
1505920032.96,11926,15.69,73436.0,2.07,-5.89,-9.83,0,*73
1505920034.19,11927,15.69,73440.5,2.07,-5.93,-10.09,0,*43
1505920035.38,11928,15.69,73438.0,2.07,-6.05,-10.35,0,*4F
1505920036.64,11929,15.69,73438.8,2.05,-6.13,-10.67,0,*4C
1505920037.88,11930,15.69,73440.0,2.05,-6.27,-10.93,0,*48
1505920039.1,11931,15.69,73436.0,2.05,-6.39,-11.23,0,*4C
1505920040.32,11932,15.69,73440.5,2.07,-6.55,-11.51,0,*42
1505920041.57,11933,15.69,73438.0,2.05,-6.77,-11.77,0,*45
1505920042.82,11934,15.69,73438.5,2.05,-6.89,-11.93,0,*49
1505920044.06,11935,15.69,73436.8,2.07,-6.97,-12.15,0,*48
1505920045.28,11936,15.69,73438.3,2.07,-7.31,-12.39,0,*48
1505920046.54,11937,15.69,73438.5,2.05,-7.39,-12.61,0,*4E
1505920047.81,11938,15.69,73436.5,2.05,-7.31,-12.53,0,*48
1505920049.09,11939,15.69,73438.0,2.05,-7.43,-12.53,0,*4C
1505920050.34,11940,15.69,73438.5,2.05,-7.65,-12.93,0,*4A
1505920051.58,11941,15.69,73434.0,2.05,-7.95,-13.11,0,*4F
1505920052.8,11942,15.69,73436.3,2.07,-7.91,-13.19,0,*42
1505920054.05,11943,15.69,73436.8,2.05,-8.21,-13.61,0,*4A
1505920055.32,11944,15.69,73438.3,2.05,-8.51,-13.87,0,*42
1505920056.54,11945,15.69,73436.0,2.05,-8.63,-13.93,0,*47
1505920057.76,11946,15.69,73436.5,2.05,-8.55,-13.73,0,*4F
1505920058.98,11947,15.69,73438.8,2.03,-8.51,-13.73,0,*4C
1505920060.23,11948,15.69,73438.5,2.03,-8.51,-13.61,0,*40
1505920061.46,11949,15.69,73436.8,2.05,-8.55,-13.73,0,*40
1505920062.67,11950,15.69,73436.3,2.07,-8.51,-13.69,0,*45
1505920063.89,11951,15.69,73434.8,2.05,-8.75,-13.73,0,*4B
1505920065.17,11952,15.69,73436.5,2.05,-9.15,-13.97,0,*45
1505920066.41,11953,15.69,73438.8,2.05,-9.49,-14.11,0,*44
1505920067.66,11954,15.69,73442.8,2.07,-9.37,-14.01,0,*49
1505920068.88,11955,15.69,73434.5,2.03,-9.31,-13.87,0,*43
1505920070.12,11956,15.75,73442.8,2.05,-9.45,-13.93,0,*40
1505920071.39,11957,15.69,73436.5,2.05,-9.45,-13.87,0,*44
1505920072.65,11958,15.69,73438.8,2.05,-9.49,-13.79,0,*46
1505920073.89,11959,15.69,73438.8,2.05,-9.45,-13.65,0,*46
1505920075.11,11960,15.69,73436.5,2.05,-9.75,-13.65,0,*4F
1505920076.33,11961,15.69,73442.3,2.03,-10.01,-13.79,0,*7E
1505920077.54,11962,15.69,73440.0,2.05,-9.89,-13.47,0,*4E
1505920078.76,11963,15.69,73436.0,2.03,-10.01,-13.33,0,*72
1505920080.0,11964,15.69,73436.8,2.01,-10.05,-13.37,0,*77
1505920081.23,11965,15.69,73438.8,2.03,-9.71,-12.75,0,*48
1505920082.45,11966,15.69,73436.5,2.03,-9.45,-12.39,0,*44
1505920083.65,11967,15.69,73434.0,2.03,-9.31,-12.25,0,*4B
1505920084.88,11968,15.69,73438.0,2.03,-9.31,-12.11,0,*43
1505920086.08,11969,15.69,73436.8,2.03,-9.31,-12.25,0,*45
1505920087.33,11970,15.69,73440.3,2.03,-9.45,-12.53,0,*4F
1505920088.57,11971,15.69,73438.5,2.03,-9.49,-12.65,0,*47
1505920089.82,11972,15.69,73438.8,2.03,-9.49,-12.75,0,*45
1505920091.06,11973,15.69,73436.5,2.03,-9.57,-12.65,0,*4A
1505920092.29,11974,15.69,73434.5,2.03,-9.61,-12.65,0,*48
1505920093.55,11975,15.69,73434.0,2.05,-10.01,-12.79,0,*7C
1505920094.74,11976,15.69,73438.5,2.07,-10.09,-12.93,0,*71
1505920095.97,11977,15.69,73436.8,2.05,-10.31,-13.19,0,*7A
1505920097.19,11978,15.69,73432.0,2.05,-10.09,-13.07,0,*71
1505920098.41,11979,15.69,73436.0,2.05,-10.01,-13.23,0,*7E
1505920099.66,11980,15.69,73436.0,2.05,-10.27,-13.61,0,*7A
1505920100.89,11981,15.69,73438.5,2.05,-10.45,-13.73,0,*7C
1505920102.17,11982,15.69,73434.0,2.05,-10.67,-13.97,0,*75
1505920103.4,11983,15.69,73438.3,2.05,-10.85,-14.19,0,*79
1505920104.65,11984,15.69,73436.8,2.05,-11.07,-14.37,0,*79
1505920105.91,11985,15.69,73434.8,2.05,-11.07,-14.23,0,*7D
1505920107.11,11986,15.69,73434.8,2.03,-11.11,-14.19,0,*76
1505920108.34,11987,15.69,73434.5,2.03,-10.97,-14.05,0,*75
1505920109.6,11988,15.69,73434.8,2.01,-11.01,-13.97,0,*7A
1505920110.85,11989,15.69,73438.5,2.03,-11.07,-14.05,0,*73
1505920112.09,11990,15.69,73436.8,2.03,-11.29,-14.23,0,*73
1505920113.35,11991,15.69,73434.0,2.03,-11.63,-14.47,0,*7E
1505920114.57,11992,15.69,73438.0,2.03,-11.81,-14.65,0,*71